Terminal Aerodrome Forecast
Issued by NWS St Louis, MO

Home | Current Version | Previous Version | Text Only | Print | Product List | Glossary On
Versions: 1 2 3 4 5 6 7 8 9 10 11 12 13 14 15 16 17
000
FTUS43 KLSX 210309 AAA
TAFCOU
TAF AMD
KCOU 210309Z 2103/2124 13006KT P6SM SKC
     FM210600 16009KT 6SM BR OVC015
     FM211400 16010KT P6SM OVC025
     FM211800 18012KT P6SM BKN035=

USA.gov is the U.S. government's official web portal to all federal, state and local government web resources and services.